Flag for India Weather past 2 weeks in Chandigarh, Chandigarh, India

Now
82 °F

Thunderstorms. Mostly cloudy.


Feels Like: 91 °F
Forecast: 79 / 91 °F
Wind: 14 mph from Southeast

Location: Lahore Airport

Current Time: Jul 31, 2015 at 5:54:30 PM

Latest Report: Jul 31, 2015 at 5:25 PM


Visibility: 2 mi

Pressure: 29.45 "Hg

Humidity: 84%

Dew point: 77 °F

Location of ChandigarhLocation

Historic Weather in Chandigarh — Graph

°F

Chandigarh temperature yesterday

Maximum temperature yesterday: 93 °F (at 3:55 PM)
Minimum temperature yesterday: 81 °F (at 5:25 AM)
Average temperature yesterday: 88 °F

Past Weeks' High & Low Weather Summary

 TemperatureHumidityPressure
High102 °F (Jul 16, 3:55 PM)100% (Jul 17, 12:55 AM)29.68 "Hg (Jul 17, 12:55 AM)
Low75 °F (Jul 17, 2:25 AM)53% (Jul 19, 4:30 PM)29.30 "Hg (Jul 16, 4:55 PM)
Average85 °F77%29.54 "Hg
* Reported Jul 16 3:55 PM — Jul 31 4:25 PM, Chandigarh, Weather by CustomWeather, © 2015

Note: Actual official high and low records may vary slightly from our data, if they occured in-between our weather recording intervals... More about our weather records

Advertising

Chandigarh weather history for previous 24 hours

 ConditionsComfort  
Time TempWeatherWind HumidityBarometerVisibility
4:25 PM
Fri, Jul 31
88 °FThunderstorms. Scattered clouds.15 mph70%29.45 "Hg2 mi
3:55 PM88 °FThunderstorms. Scattered clouds.14 mph70%29.45 "Hg2 mi
3:25 PM88 °FScattered clouds.12 mph70%29.47 "Hg3 mi
2:55 PM88 °FBroken clouds.13 mph70%29.47 "Hg3 mi
2:25 PM88 °FBroken clouds.13 mph70%29.47 "Hg3 mi
1:55 PM86 °FBroken clouds.14 mph75%29.50 "Hg3 mi
12:55 PM84 °FBroken clouds.13 mph79%29.50 "Hg3 mi
12:25 PM84 °FThunderstorms. Broken clouds.9 mph79%29.53 "Hg3 mi
11:55 AM84 °FThundershowers. Broken clouds.13 mph79%29.53 "Hg3 mi
11:25 AM84 °FThunderstorms. Broken clouds.13 mph79%29.53 "Hg3 mi
10:55 AM86 °FBroken clouds.12 mph75%29.53 "Hg4 mi
10:25 AM86 °FBroken clouds.13 mph75%29.53 "Hg4 mi
5:25 AM79 °FPartly cloudy.9 mph84%29.47 "Hg2 mi
4:55 AM81 °FPartly cloudy.7 mph84%29.47 "Hg2 mi
4:25 AM81 °FPartly cloudy.8 mph84%29.47 "Hg3 mi
3:25 AM81 °FPartly cloudy.12 mph84%29.47 "Hg3 mi
2:55 AM82 °FPassing clouds.9 mph79%29.47 "Hg3 mi
2:25 AM82 °FPassing clouds.7 mph79%29.47 "Hg3 mi
1:55 AM82 °FPassing clouds.7 mph79%29.47 "Hg3 mi
1:25 AM84 °FPassing clouds.5 mph74%29.47 "Hg3 mi
12:55 AM84 °FPassing clouds.8 mph74%29.47 "Hg3 mi
12:25 AM84 °FThundershowers. Passing clouds.8 mph74%29.50 "Hg3 mi
11:55 PM
Thu, Jul 30
84 °FThunderstorms. Partly cloudy.7 mph79%29.50 "Hg3 mi
11:25 PM84 °FThunderstorms. Partly cloudy.7 mph79%29.50 "Hg3 mi
10:25 PM86 °FThunderstorms. Passing clouds.5 mph75%29.50 "Hg3 mi
9:55 PM86 °FThunderstorms. Passing clouds.7 mph75%29.50 "Hg3 mi
9:25 PM86 °FThundershowers. Partly cloudy.7 mph75%29.47 "Hg3 mi
8:55 PM88 °FPassing clouds.6 mph70%29.47 "Hg4 mi
8:25 PM88 °FPassing clouds.6 mph70%29.47 "Hg4 mi
7:55 PM90 °FPassing clouds.5 mph67%29.45 "Hg4 mi
7:25 PM90 °FScattered clouds.5 mph67%29.45 "Hg4 mi
6:55 PM90 °FScattered clouds.6 mph67%29.45 "Hg4 mi
6:25 PM91 °FScattered clouds.9 mph63%29.45 "Hg4 mi
5:55 PM91 °FScattered clouds.9 mph63%29.45 "Hg4 mi
5:25 PM91 °FScattered clouds.10 mph63%29.45 "Hg4 mi
Weather by CustomWeather, © 2015

See weather overviewHow to use our weather pages